Regional Weather Roundup
Issued by NWS

Home | Current Version | Previous Version | Graphics & Text | Print | Product List | Glossary On
Versions: 1 2 3 4 5 6 7 8 9 10 11 12 13 14 15 16 17 18 19 20 21 22 23 24 25 26 27 28 29 30 31 32 33 34 35 36 37 38 39 40 41 42 43 44 45 46 47 48 49 50
000
ASUS43 KDTX 250401
RWRMI
MICHIGAN HOURLY REGIONAL WEATHER ROUNDUP
NATIONAL WEATHER SERVICE DETROIT/PONTIAC MI
1200 AM EDT THU MAY 25 2017

NOTE: "FAIR" INDICATES FEW OR NO CLOUDS BELOW 12,000 FEET WITH NO
SIGNIFICANT WEATHER AND/OR OBSTRUCTION TO VISIBILITY.

MIZ047>049-052>055-059>063-066>070-074>076-081>083-250500-
SOUTHEAST LOWER MICHIGAN

CITY           SKY/WX    TMP DP  RH WIND       PRES   REMARKS
ADRIAN         CLOUDY    58  57  97 E13G20    29.47S
ANN ARBOR      CLOUDY    59  58  96 NE10      29.49R
DETROIT CITY   CLOUDY    58  57  97 E12G21    29.51S
DETROIT        RAIN      59  58  96 NE8       29.50S FOG
FLINT          LGT RAIN  58  56  93 NE12      29.54S

CITY           SKY/WX    TMP DP  RH WIND       PRES   REMARKS
JACKSON        LGT RAIN  58  57  97 NE12      29.49S FOG
LANSING        LGT RAIN  58  54  86 NE15      29.53S FOG
LAPEER         NOT AVBL
MT. CLEMENS    LGT RAIN  59  59 100 NE8       29.51S
PONTIAC        LGT RAIN  58  55  90 E10       29.51R
PORT HOPE        N/A     52  50  93 CALM      29.60F
TRI CITIES     LGT RAIN  54  53  97 NE14      29.59S FOG
MIDLAND        NOT AVBL
$$
MIZ043>046-050>051-056>058-064>065-071>073-077>080-250500-
SOUTHWEST LOWER MICHIGAN

CITY           SKY/WX    TMP DP  RH WIND       PRES   REMARKS
BATTLE CREEK   CLOUDY    58  58 100 NE9       29.50F FOG
BENTON HARBOR  MOCLDY    57  54  89 VRB5      29.50F FOG
HOLLAND        MOCLDY    60  54  80 NE7       29.53F
GRAND RAPIDS   LGT RAIN  57  56  96 NE13      29.54S
KALAMAZOO      LGT RAIN  59  55  87 N8        29.49F FOG
MUSKEGON       CLOUDY    62  53  72 NE8       29.55F
$$
MIZ016>042-250500-
NORTHERN LOWER MICHIGAN

CITY           SKY/WX    TMP DP  RH WIND       PRES   REMARKS
ALPENA         CLOUDY    57  51  80 NE13      29.67F
GAYLORD        MOCLDY    55  48  77 NE9       29.67F
HOUGHTON LAKE  CLOUDY    57  50  77 NE13      29.63F
MANISTEE       CLOUDY    56  52  86 NE9       29.61F
PELLSTON       MOCLDY    55  50  83 NE7       29.69F
TRAVERSE CITY  CLOUDY    52  49  89 CALM      29.64S
$$
MIZ007>008-015-250500-
EASTERN UPPER MICHIGAN

CITY           SKY/WX    TMP DP  RH WIND       PRES   REMARKS
KINROSS        CLOUDY    54  50  86 NE8       29.72F
S. S. MARIE    CLOUDY    57  50  77 VRB6      29.72S
MUNISING         N/A     43  41  93 N8        29.75S
$$
MIZ004>006-011>014-085-250500-
CENTRAL UPPER MICHIGAN

CITY           SKY/WX    TMP DP  RH WIND       PRES   REMARKS
ESCANABA       CLOUDY    51  47  86 NW6       29.72S
MENOMINEE      CLOUDY    51  48  89 N9        29.71S
$$
MIZ001>003-009>011-084-250500-
WESTERN UPPER MICHIGAN

CITY           SKY/WX    TMP DP  RH WIND       PRES   REMARKS
IRON MOUNTAIN  LGT RAIN  50  45  83 N7        29.72F
HOUGHTON       CLEAR     44  41  89 E5        29.76F
COPPER HARBOR    N/A     44  38  79 CALM      29.78S
IRONWOOD       CLEAR     42  41  96 CALM      29.76S
$$

ABBREVIATIONS USED IN REMARKS
   TC - TEMPERATURE IN CELSIUS
  WCI - WIND CHILL INDEX
   HX - HEAT INDEX
  VSB - VISIBILITY





USA.gov is the U.S. government's official web portal to all federal, state and local government web resources and services.